OPS 4682 DEB, 55122

Orbit data source: Space-Track

OPS 4682 DEB, 55122 is space debris in LEO originally from a launch on Sat, 03 Apr 1965 UTC launched from the Air Force Western Test Range (AFWTR). Debris objects in space refer to the collection of defunct objects orbiting the Earth. Examples of debris include non-operational satellites, rocket bodies, and fragments generated from explosions, collisions, or faulty payload assembly.

Loading next visibility...
Identifier
55122, 1965-027HM
Orbit
LEO
Country
Flag of USUS
Related business
Manufacturer
Unknown
Mission
Spacecraft
Bus & Motor
Unknown
Mass
Unknown
Launch date (UTC)
1965-04-03 (61 years ago)
Launch vehicle
Unknown
Launch site
Air Force Western Test Range (AFWTR)
Object type
Payload
Rocket body
Debris
Shape & HBR
Unknown
Radar Cross Section
Medium (>0.1 m² and <1 m²)

Expand to show TLE details & history
Last TLE update: 5 days ago

TLE from 5 days ago
0 OPS 4682 DEB
1 55122U 65027HM  26203.71571855  .00000157  00000-0  47469-3 0  9993
2 55122  90.2530  13.6467 0034465 352.4388  24.6310 13.03298085596115
Epoch: 2026-07-22T17:10Z
TLE epoch observation values (Epoch: 2026-07-22T17:10:38.082Z)
Latitude
17.22134°
Longitude
175.44293°
Altitude
1,227.604 km
Speed
7.253 km/s
True Right ascension
00h 54m 16s
True Declination
17° 07' 49"
Sunlit
Object was in daylight at epoch
Visualization orbit readout
Latitude
Unknown
Longitude
Unknown
Altitude
Unknown
Speed
Unknown
Apparent Right ascension
Unknown
Apparent Declination
Unknown
Sunlit
N/A
Visualization observer readout
Local Sidereal Time
23:11:16
Azimuth
Unknown
Elevation
Unknown
Doppler factor
Unknown
Orbital elements
Apogee altitude
1,272.592 km
Perigee altitude
1,220.036 km
Semi-major axis
7,624.451 km
Eccentricity
0.00345
Inclination
90.253°
RAAN
13.6467°
Arg. of periapsis
352.4388°
True anomaly
24.79625°
Mean anomaly
24.631°
Eccentric anomaly
24.71356°
Mean motion
3.2601 °/min
Orbital period
110.43 mins
BSTAR
0.00047469
Loading maneuver chart data...
Computing Atmospheric mass density...
Loading historical data...
Loading historical data...
Loading historical data...
Loading historical data...
Loading historical data...
Loading historical data...
Loading historical data...

Documentation

Showing up to 5 results
|